sat.trackr.live / text

‹ back to catalog

STARLINK-3621

NORAD 51769 · 2022-017B

PAYLOAD ACTIVE UNKNOWN

§ Identity

Operator
Country
US
Launch date
2022-02-25
Launch site
AFWTR
Launch vehicle
Mass (kg)
RCS (m²)

Purposes: comms

External: N2YO · Heavens-Above · Gunter

§ Orbital elements

Epoch: 2026-09-20T04:10:35.125824Z

Period
95.31 min
Inclination
53.2153°
Eccentricity
0.0001625
Mean motion
15.10922333 rev/d
Perigee alt
532.3 km
Apogee alt
534.5 km
Semi-major
6,911.5 km
B*
3.1371e-4
RAAN
184.7922°
Arg perigee
80.7789°
Mean anomaly
279.3388°
Rev number
25,198

§ Raw data

STARLINK-36211 51769U 22017B   26263.17401766  .00004997  00000+0  31371-3 0  99972 51769  53.2153 184.7922 0001625  80.7789 279.3388 15.10922333251989

JSON: /api/v1/satellites/51769 · /tle

For live sub-satellite position, see the globe view (requires WebGL).

§ Visibility from observer

Set your observer location to see the next 7 days of passes ≥ 10°. The values pass through the URL so the page stays shareable.

No JS? Fill the form by hand. The geolocation button needs JavaScript.